STARLINK-32591, 61718

Orbit data source: Space-Track

STARLINK-32591, 61718 is a payload satellite owned by SpaceX/Seattle (US) in LEO that was launched on Wed, 30 Oct 2024 UTC via an FALCON 9 launch vehicle from the Air Force Eastern Test Range (AFETR). Payload-class satellites include a variety of spacecraft equipped with specific instruments for various scientific and technological missions. These include communications satellites like Starlink; space stations such as the ISS; scientific satellites like the Hubble; Earth observation satellites from companies like Planet Labs, Umbra, and HawkEye 360; GPS; miniature CubeSats for education and research; and military/defense satellites.

Loading next visibility...
Identifier
61718, 2024-196M
Orbit
LEO
Country
Flag of USUS
Related business
Manufacturer
SpaceX/Seattle
Mission
Operational Commercial Communications
Bus & Motor
STARLINK V2M, Unknown motor
Mass
730 kg wet, ~700 kg dry
Launch date (UTC)
2024-10-30 (2 years ago)
Launch vehicle
FALCON 9
Launch site
Air Force Eastern Test Range (AFETR)
Object type
Payload
Rocket body
Debris
Shape & HBR
Box + 2 Pan, 17.7 m
Radar Cross Section
33.884 m², Large (>1 m²)

Expand to show TLE details & history
Last TLE update: 13 hours ago

TLE from 13 hours ago
0 STARLINK-32591
1 61718U 24196M   26163.84831920  .00000388  00000-0  22640-4 0  9995
2 61718  53.1620   5.2587 0001513  82.6606 277.4568 15.34396727 91924
Epoch: 2026-06-12T20:21Z
TLE epoch observation values (Epoch: 2026-06-12T20:21:34.778Z)
Latitude
-0.00009°
Longitude
158.69185°
Altitude
463.48 km
Speed
7.636 km/s
True Right ascension
00h 21m 02s
True Declination
0° 00' 00"
Sunlit
Object was in daylight at epoch
Visualization orbit readout
Latitude
Unknown
Longitude
Unknown
Altitude
Unknown
Speed
Unknown
Apparent Right ascension
Unknown
Apparent Declination
Unknown
Sunlit
N/A
Visualization observer readout
Local Sidereal Time
19:24:57
Azimuth
Unknown
Elevation
Unknown
Doppler factor
Unknown
Orbital elements
Apogee altitude
464.005 km
Perigee altitude
461.934 km
Semi-major axis
6,841.107 km
Eccentricity
0.00015
Inclination
53.162°
RAAN
5.2587°
Arg. of periapsis
82.6606°
True anomaly
277.43961°
Mean anomaly
277.4568°
Eccentric anomaly
277.4482°
Mean motion
3.83578 °/min
Orbital period
93.85 mins
BSTAR
0.00002264
Loading maneuver chart data...
Computing Atmospheric mass density...
Loading historical data...
Loading historical data...
Loading historical data...
Loading historical data...
Loading historical data...
Loading historical data...
Loading historical data...

Documentation

Showing up to 5 results
|